Regional Weather Roundup
Issued by NWS Wakefield, VA

Home | Current Version | Previous Version | Graphics & Text | Print | Product List | Glossary On
Versions: 1 2 3 4 5 6 7 8 9 10 11 12 13 14 15 16 17 18 19 20 21 22 23 24 25 26 27
000
ASUS41 KAKQ 292015
RWRAKQ

REGIONAL WEATHER ROUNDUP
NATIONAL WEATHER SERVICE WAKEFIELD VA
400 PM EDT SUN MAY 29 2016

Note: "fair" indicates few or no clouds below 12,000 feet with no
significant weather and/or obstructions to visibility. * = Denotes
station may not report precipitation (e.g., rain,snow,etc.),
thunder or fog.

VAZ042-051-052>054-056-292100-
NORTHERN VIRGINIA

CITY           SKY/WX    TMP DP  RH WIND       PRES   REMARKS
WASH NATIONAL  NOT AVBL
DULLES         CLOUDY    81  62  52 S5        30.08F
FORT BELVOIR   FAIR      81  67  63 SE1       30.07F
QUANTICO       LGT RAIN  80  68  66 S3        30.08F
FREDERICKSBRG* LGT RAIN  79  71  77 SE9G16    30.08R
STAFFORD*      FAIR      79  66  63 E7        30.12F
WARRENTON      LGT RAIN  79  67  66 CALM      30.08F
CULPEPER*      LGT RAIN  80  67  64 CALM      30.09F
MANASSAS*      CLOUDY    81  66  61 SE5       30.08F
LEESBURG*      FAIR      84  64  51 S9        30.08F
WINCHESTER     PTSUNNY   79  63  57 S6        30.09F
FRONT ROYAL*   MOCLDY    79  66  65 CALM      30.08F
LURAY*         FAIR      77  63  61 S3        30.10F
$$

VAZ048-049-060>072-079>083-292100-
CENTRAL AND SOUTH CENTRAL VIRGINIA

CITY           SKY/WX    TMP DP  RH WIND       PRES   REMARKS
RICHMOND       RAIN      72  71  97 SE6       30.08F FOG
CHESTERFIELD*  CLOUDY    72  61  68 W3        30.10F
PETERSBURG*    RAIN      73  73 100 N3        30.08F
HANOVER        HVY RAIN  70  68  93 CALM      30.11S VSB 1/2
TAPPAHANNOCK*  RAIN      75  75 100 E3        30.09F
QUINTON*       MOCLDY    73  73  99 E10       30.08F FOG
CHARLOTTSVILLE FAIR      80  63  55 CALM      30.08F
GORDONSVILLE*  MOCLDY    77  69  76 E3        30.08F
ORANGE*        PTSUNNY   77  68  73 CALM      30.11F
LOUISA*        PTSUNNY   81  72  74 CALM      30.08F
BUMPASS*       CLOUDY    78  67  69 CALM      30.09S
FARMVILLE*     CLOUDY    78  66  66 CALM      30.07F
CREWE*         CLOUDY    78  70  77 N5        30.07F
FORT PICKETT*  NOT AVBL
CHASE CITY*    CLOUDY    72  71  95 N5        30.07F
CLARKSVILLE*   CLOUDY    70  70 100 N5        30.06F
SOUTH HILL*    CLOUDY    72  71  98 CALM      30.11F
LAWRENCEVILLE* CLOUDY    73  73 100 CALM      30.05F
EMPORIA*       LGT RAIN  72  72 100 CALM      30.06F
$$

VAZ088>098-292100-
SOUTHEAST VIRGINIA

CITY           SKY/WX    TMP DP  RH WIND       PRES   REMARKS
NORFOLK        LGT RAIN  76  72  87 SE7       30.07F
VIRGINIA BEACH LGT RAIN  79  71  76 SE8       30.07F
NORFOLK NAVAL  LGT RAIN  77  74  90 SE3       30.08F FOG
WEST POINT*    PTSUNNY   76  73  91 E7        30.09F
SALUDA*        CLOUDY    74  74  99 E5        30.08F
NEWPORT NEWS   PTSUNNY   76  74  93 E6        30.07F
LANGLEY AFB    CLOUDY    75  73  94 E7        30.07F FOG
FORT EUSTIS    LGT RAIN  75  66  73 SE3       30.05F
WILLIAMSBURG*  FAIR      79  75  89 SE7       30.08F
HR EXEC AP*    CLOUDY    75  72  88 S6        30.09F
FRANKLIN*      CLOUDY    74  71  90 SE8       30.06F
US460-WAKEFLD  LGT RAIN  75  71  87 E7        30.06F
$$

VAZ020-022-025-037-045-292100-
WEST CENTRAL AND SOUTHWEST VIRGINIA

CITY           SKY/WX    TMP DP  RH WIND       PRES   REMARKS
STAUNTON*      LGT RAIN  72  63  73 W6        30.14F
WAYNESBORO*    CLOUDY    69  58  68 W5        30.15S
HOT SPRINGS VA RAIN      63  56  79 NE3       30.23F
LYNCHBURG      LGT RAIN  67  63  87 VRB5      30.13F
DANVILLE       LGT RAIN  70  65  84 N6        30.10S
SOUTH BOSTON*  CLOUDY    70  68  95 N7        30.08F
MARTINSVILLE   CLOUDY    69  58  68 N5        30.15S
ROANOKE        CLOUDY    73  56  54 NE6       30.15F
BLACKSBURG     DRIZZLE   66  61  83 N5        30.21F
DUBLIN*        LGT RAIN  73  60  65 E6        30.18F
MARION*        CLOUDY    73  56  55 CALM      30.20F
HILLSVILLE*    CLOUDY    68  59  72 N6        30.18S
RICHLANDS*     MOCLDY    72  63  72 CALM      30.19S
WISE*          CLOUDY    72  57  60 SW6       30.19F
ABINGDON*      FAIR      77  53  43 SE8       30.16F
$$

MDZ021>025-VAZ099-100-292100-
SOUTHERN MARYLAND AND THE DELMARVA PENINSULA

CITY           SKY/WX    TMP DP  RH WIND       PRES   REMARKS
PATUXENT RIVER LGT RAIN  74  71  91 SE5       30.08F
BAY BRIDGE APT CLOUDY    81  70  69 W6        30.07F
LEONARDTOWN    CLOUDY    73  70  88 CALM      30.10F
DOVER          PTSUNNY   78  74  89 SE15      30.07F
GEORGETOWN     CLOUDY    80  70  71 S15       30.10F
EASTON         HVY RAIN  77  75  94 SE10      30.12F
CAMBRIDGE      CLOUDY    73  72  94 SE7       30.09F
SALISBURY      CLOUDY    78  73  84 S6        30.10F
OCEAN CITY     CLOUDY    73  70  90 VRB6      30.11F
WALLOPS ISLAND FAIR      76  71  85 SE9       30.11F
ACCOMACK*      CLOUDY    77  70  78 CALM      30.09F
$$

NCZ012>017-030>032-292100-
NORTH CENTRAL AND EASTERN NORTH CAROLINA

CITY           SKY/WX    TMP DP  RH WIND       PRES   REMARKS
ROANOKE RAPIDS FAIR      77  73  88 SE5       30.04F
RALEIGH        CLOUDY    74  71  91 VRB6      30.03F
ELIZABETH CITY LGT RAIN  74  72  93 CALM      30.08S FOG
AHOSKIE*       LGT RAIN  76  72  89 SE5       30.05F
EDENTON*       CLOUDY   N/A N/A N/A SE3       30.06F
CURRITUCK*     HVY RAIN  77  76  98 S6        30.08F
KILL DEVIL HLS CLOUDY    85  71  64 SE8G20    30.07S
MANTEO         NOT AVBL
CAPE HATTERAS  MOSUNNY   82  75  79 S12       30.07F
TARBORO*       CLOUDY    81  73  76 E5        30.04S
GOLDSBORO      NOT AVBL
WASHINGTON     SUNNY     82  74  76 SE7       30.03S
GREENVILLE     MOSUNNY   81  73  78 SE5       30.04F
NEW BERN       MOSUNNY   84  71  65 S12       30.04F
WILMINGTON     MOSUNNY   82  71  69 SE12G21   29.99F
$$

VAZ048-292100-
ELSEWHERE

CITY           SKY/WX    TMP DP  RH WIND       PRES   REMARKS
HARRISBURG PA  PTSUNNY   88  57  34 VRB3      30.05F
BALTIMORE      PTSUNNY   83  65  54 S7        30.07F
ANNAPOLIS      MOSUNNY   80  67  64 S13       30.07F
ANDREWS AFB    LGT RAIN  79  68  69 SE9       30.07F
PHILADELPHIA   PTSUNNY   86  63  45 S12       30.07F
HENDERSON NC   CLOUDY    68  66  95 N8        30.06F
GREENSBORO     CLOUDY    74  62  66 N8G16     30.08F
ROCKY MOUNT    PTSUNNY   81  73  76 E6        30.02F
$$

VAZ100-292100-
MARINE

STATION/POSITION TIME  TEMP    WIND        PRES    WAVE   SWELL
                       AIR SEA DIR/SP/G            HT/PER HT/PER
                 (UTC) (F)     (DEG/KT/KT) (MB)    (FT/S) (FT/S)
BRANDYWINE LGT   1900   66     140/ 14/ 14 1020.0F
CAPE MAY NJ      1900   75 71  120/ 12/ 16 1019.8F
LEWES DE         1900   76 67  160/  9/ 15 1019.6F
15NM E FENWICK I 1950   69 66              1019.7F   3/ 8
OCEAN-CITY-INLET 1900   70 59  160/  2/  3 1020.4F
WACHAPREAGUE VA  1900   73 78  110/  6/  8 1019.4F
THOMAS POINT MD  2000   74 70  200/  6/  6 1019.8F
GOOSES REEF MD   1900   74 70  190/  6/  8 1020.2F   1
COVE POINT MD    1900   73     180/ 12/ 13 1020.0F
SOLOMONS ISLAND  1900   72 70  140/ 13/ 15   N/A
BISHOPS HEAD MD  1900   74 79  160/  8/  9 1019.6F
PINEY POINT MD   1900          160/ 11/ 12   N/A
POTOMAC MD       1900   72 72  130/  6/  6 1018.5F   1
CAMBRIDGE MD     1900   77 67  320/  4/  5 1018.3F
LEWISETTA VA     1900   73 74  120/  7/  9 1018.9S
RAPPAHANNOCK LGT 1900          120/  8/  9 1019.9F
STINGRAY PT      1900   72 71   70/  4/  4 1019.8S   1
YORK RVR RNG VA  1900   72     140/ 10/ 12 1018.5S
YORKTOWN VA      1900   73 71  100/  6/  7 1018.8F
JAMESTOWN VA     1900   75 75  100/  4/  8   N/A
DOMINION TERM VA 1900   74     180/  4/  4 1018.9S
KIPTOPEKE VA     1900      71  150/ 12/ 15   N/A
CHES BAY BRIDGE  1900   74 67  110/  7/ 10 1019.0F
CAPE HENRY VA    1900   72     130/  8/ 12   N/A
CHESAPEAKE LGHT  1900   72     140/ 15/ 18 1019.8S
WILLOUBY STN VA  1900   74     100/  4/  5 1019.9S
CAPE HENRY BUOY  1912      70                N/A     3/ 6
1ST LANDING BUOY 1900   71 70  130/ 10/ 14 1019.1F   2/ 4
CAPE CHARLES BUO 1926      68                N/A     3/ 8   2/ 8
OFFSHORE WE BUOY 1921      71                N/A     4/ 6   3/ 8
64NM E OF VA BCH 1950   69 65  120/  6/  6 1019.2F   4/ 6   3/ 6
DUCK PIER NC     1900   74 60  130/ 15/ 17 1017.9F
44100 DUCK FRF   1924      71                N/A     4/ 8
44056 DUCK FRF   1911      68                N/A     3/ 8
OREGON INLET NC  1900   81 75  150/ 12/ 18 1018.9F
HATTERAS NC      1900   74 77  150/  8/ 11 1018.3F
DIAMOND SHLS NC  1950   79 76  160/ 17/ 21 1017.8F   6/ 8   2/14
CAPE LOOKOUT NC  200C1F1C2F2C3F3C4F4C5F5C6F6C7F7C8M1C9!



USA.gov is the U.S. government's official web portal to all federal, state and local government web resources and services.